Weather History for KOWA - November, 2012

Change the Weather History Date:

Monday, November 5, 2012

  Actual Average Record
Temperature  
Mean Temperature 45 °F -  
Max Temperature 48 °F 47 °F 69 °F (1975)
Min Temperature 42 °F 28 °F 13 °F (1973)
Degree Days  
Heating Degree Days 20    
Moisture  
Dew Point 35 °F    
Average Humidity 70    
Maximum Humidity 81    
Minimum Humidity 58    
Precipitation  
Precipitation 0.01 in - - ()
Sea Level Pressure  
Sea Level Pressure 30.11 in    
Wind  
Wind Speed 5 mph (SSE)    
Max Wind Speed 15 mph    
Max Gust Speed 21 mph    
Visibility 6 miles    
Events Rain    
Averages and records for this station are not official NWS values.
T = Trace of Precipitation, MM = Missing Value Source: NWS Daily Summary

Daily Weather History Graph

Daily Weather History Graph

Search for Another Location

Airport or City:

Trip Planner

Search our weather history database for the weather conditions in past years. The results will help you decide how hot, cold, wet, or windy it might be!

Date:

Astronomy

Nov. 05, 2012 Rise Set
Actual Time 6:55 AM CST 4:56 PM CST
Civil Twilight 6:25 AM CST 5:27 PM CST
Nautical Twilight 5:50 AM CST 6:01 PM CST
Astronomical Twilight 5:17 AM CST 6:35 PM CST
Moon 10:35 PM CST (11/5) 12:15 PM CST (11/5)
Length of Visible Light 11h 02m
Length of Day
10h 01m
Waning Gibbous, 62% of the Moon is Illuminated
Nov 5
Waning Gibbous
Nov 6
Last Quarter
Nov 13
New
Nov 20
First Quarter
Nov 28
Full

Hourly Weather History & Observations

Time (CST) Temp. Windchill Dew Point Humidity Pressure Visibility Wind Dir Wind Speed Gust Speed Precip Events Conditions
12:13 AM 44.6 °F 42.2 °F 37.4 °F 76% 30.12 in 4.0 mi ESE 4.6 mph - N/A   Drizzle
12:33 AM 44.6 °F 41.4 °F 37.4 °F 76% 30.12 in 4.0 mi ESE 5.8 mph - N/A   Light Drizzle
12:53 AM 44.6 °F 42.2 °F 37.4 °F 76% 30.12 in 3.0 mi ESE 4.6 mph - N/A Rain Light Rain
1:13 AM 44.6 °F 43.1 °F 37.4 °F 76% 30.13 in 3.0 mi ESE 3.5 mph - N/A   Drizzle
1:33 AM 44.6 °F 41.4 °F 37.4 °F 76% 30.13 in 2.5 mi ESE 5.8 mph - N/A   Drizzle
1:53 AM 44.6 °F 42.2 °F 37.4 °F 76% 30.13 in 2.0 mi ESE 4.6 mph - N/A   Drizzle
2:14 AM 44.6 °F 42.2 °F 37.4 °F 76% 30.13 in 2.5 mi East 4.6 mph - N/A   Drizzle
2:33 AM 42.8 °F 41.1 °F 37.4 °F 81% 30.13 in 2.5 mi East 3.5 mph - N/A   Light Drizzle
2:54 AM 42.8 °F - 37.4 °F 81% 30.13 in 3.0 mi Calm Calm - N/A   Light Drizzle
3:14 AM 42.8 °F 41.1 °F 37.4 °F 81% 30.13 in 3.0 mi East 3.5 mph - N/A   Light Drizzle
3:33 AM 42.8 °F 40.1 °F 37.4 °F 81% 30.13 in 3.0 mi East 4.6 mph - N/A   Drizzle
3:53 AM 42.8 °F 41.1 °F 37.4 °F 81% 30.13 in 3.0 mi East 3.5 mph - N/A   Drizzle
4:13 AM 42.8 °F 41.1 °F 37.4 °F 81% 30.13 in 3.0 mi East 3.5 mph - N/A   Drizzle
4:33 AM 42.8 °F 41.1 °F 37.4 °F 81% 30.13 in 3.0 mi East 3.5 mph - 0.01 in   Light Drizzle
4:53 AM 42.8 °F - 37.4 °F 81% 30.13 in 3.0 mi Calm Calm - 0.01 in   Light Drizzle
5:13 AM 42.8 °F - 37.4 °F 81% 30.14 in 3.0 mi Calm Calm - N/A   Haze
5:34 AM 42.8 °F - 35.6 °F 76% 30.14 in 3.0 mi Calm Calm - N/A   Haze
5:53 AM 42.8 °F - 37.4 °F 81% 30.13 in 4.0 mi Calm Calm - N/A   Haze
6:13 AM 42.8 °F - 35.6 °F 76% 30.14 in 4.0 mi Calm Calm - N/A   Haze
6:34 AM 42.8 °F - 35.6 °F 76% 30.14 in 4.0 mi Calm Calm - N/A   Haze
6:55 AM 42.8 °F - 35.6 °F 76% 30.15 in 4.0 mi Calm Calm - N/A   Haze
7:13 AM 42.8 °F - 35.6 °F 76% 30.15 in 5.0 mi Calm Calm - N/A   Haze
7:33 AM 42.8 °F 41.1 °F 35.6 °F 76% 30.16 in 5.0 mi East 3.5 mph - N/A   Haze
7:53 AM 42.8 °F 40.1 °F 35.6 °F 76% 30.16 in 4.0 mi East 4.6 mph - N/A   Haze
8:13 AM 42.8 °F 41.1 °F 35.6 °F 76% 30.16 in 4.0 mi ESE 3.5 mph - N/A   Haze
8:33 AM 42.8 °F 39.3 °F 35.6 °F 76% 30.16 in 4.0 mi East 5.8 mph - N/A   Haze
8:54 AM 42.8 °F 40.1 °F 35.6 °F 76% 30.16 in 5.0 mi ESE 4.6 mph - N/A   Haze
9:13 AM 44.6 °F 41.4 °F 35.6 °F 71% 30.17 in 5.0 mi ESE 5.8 mph - N/A   Haze
9:34 AM 44.6 °F 40.7 °F 35.6 °F 71% 30.16 in 5.0 mi ESE 6.9 mph - N/A   Haze
9:54 AM 44.6 °F 41.4 °F 35.6 °F 71% 30.17 in 5.0 mi ESE 5.8 mph - N/A   Haze
10:13 AM 44.6 °F 40.7 °F 35.6 °F 71% 30.17 in 5.0 mi ESE 6.9 mph - N/A   Haze
10:33 AM 44.6 °F 41.4 °F 35.6 °F 71% 30.17 in 7.0 mi SE 5.8 mph - N/A   Scattered Clouds
10:53 AM 44.6 °F 42.2 °F 35.6 °F 71% 30.17 in 5.0 mi SE 4.6 mph - N/A   Haze
11:13 AM 44.6 °F 41.4 °F 35.6 °F 71% 30.16 in 7.0 mi SSE 5.8 mph - N/A   Scattered Clouds
11:33 AM 44.6 °F 40.7 °F 35.6 °F 71% 30.17 in 7.0 mi SE 6.9 mph - N/A   Scattered Clouds
11:53 AM 46.4 °F 43.5 °F 35.6 °F 66% 30.16 in 5.0 mi SE 5.8 mph - N/A   Haze
12:13 PM 46.4 °F 43.5 °F 35.6 °F 66% 30.15 in 7.0 mi SE 5.8 mph - N/A   Scattered Clouds
12:33 PM 46.4 °F 42.4 °F 35.6 °F 66% 30.14 in 7.0 mi SSE 8.1 mph - N/A   Scattered Clouds
12:53 PM 48.2 °F - 33.8 °F 58% 30.13 in 7.0 mi South 8.1 mph - N/A   Scattered Clouds
1:13 PM 46.4 °F 42.4 °F 35.6 °F 66% 30.13 in 7.0 mi South 8.1 mph - N/A   Scattered Clouds
1:33 PM 46.4 °F 42.4 °F 33.8 °F 62% 30.12 in 7.0 mi South 8.1 mph - N/A   Scattered Clouds
1:53 PM 48.2 °F - 35.6 °F 62% 30.12 in 7.0 mi South 5.8 mph - N/A   Mostly Cloudy
2:13 PM 48.2 °F - 33.8 °F 58% 30.11 in 7.0 mi South 6.9 mph - N/A   Scattered Clouds
2:34 PM 46.4 °F 41.9 °F 35.6 °F 66% 30.11 in 7.0 mi South 9.2 mph - N/A   Mostly Cloudy
2:53 PM 46.4 °F 42.4 °F 33.8 °F 62% 30.11 in 7.0 mi South 8.1 mph - N/A   Overcast
3:13 PM 46.4 °F 43.5 °F 33.8 °F 62% 30.11 in 5.0 mi South 5.8 mph - N/A   Haze
3:33 PM 46.4 °F 43.5 °F 33.8 °F 62% 30.10 in 7.0 mi South 5.8 mph - N/A   Overcast
3:53 PM 46.4 °F 42.9 °F 33.8 °F 62% 30.09 in 7.0 mi South 6.9 mph - N/A   Overcast
4:14 PM 46.4 °F 43.5 °F 33.8 °F 62% 30.10 in 7.0 mi South 5.8 mph - N/A   Mostly Cloudy
4:33 PM 46.4 °F 43.5 °F 33.8 °F 62% 30.10 in 7.0 mi South 5.8 mph - N/A   Overcast
4:53 PM 46.4 °F 43.5 °F 35.6 °F 66% 30.10 in 7.0 mi South 5.8 mph - N/A   Overcast
5:13 PM 44.6 °F 41.4 °F 35.6 °F 71% 30.09 in 7.0 mi SSW 5.8 mph - N/A   Overcast
5:33 PM 44.6 °F 40.7 °F 33.8 °F 66% 30.08 in 7.0 mi South 6.9 mph - N/A   Mostly Cloudy
5:53 PM 44.6 °F 41.4 °F 33.8 °F 66% 30.08 in 7.0 mi South 5.8 mph - N/A   Overcast
6:13 PM 44.6 °F 40.7 °F 33.8 °F 66% 30.08 in 7.0 mi South 6.9 mph - N/A   Overcast
6:34 PM 44.6 °F 40.2 °F 35.6 °F 71% 30.08 in 7.0 mi South 8.1 mph - N/A   Mostly Cloudy
6:54 PM 44.6 °F 40.2 °F 33.8 °F 66% 30.07 in 7.0 mi South 8.1 mph - N/A   Scattered Clouds
7:13 PM 44.6 °F 39.7 °F 33.8 °F 66% 30.06 in 7.0 mi South 9.2 mph - N/A   Mostly Cloudy
7:33 PM 44.6 °F 39.7 °F 33.8 °F 66% 30.05 in 7.0 mi South 9.2 mph - N/A   Mostly Cloudy
7:53 PM 44.6 °F 40.2 °F 33.8 °F 66% 30.05 in 7.0 mi South 8.1 mph - N/A   Mostly Cloudy
8:13 PM 44.6 °F 40.2 °F 33.8 °F 66% 30.05 in 7.0 mi South 8.1 mph - N/A   Mostly Cloudy
8:33 PM 44.6 °F 39.7 °F 33.8 °F 66% 30.05 in 7.0 mi South 9.2 mph - N/A   Overcast
8:53 PM 44.6 °F 39.7 °F 33.8 °F 66% 30.04 in 7.0 mi South 9.2 mph - N/A   Mostly Cloudy
9:13 PM 44.6 °F 39.7 °F 33.8 °F 66% 30.04 in 7.0 mi South 9.2 mph - N/A   Scattered Clouds
9:33 PM 44.6 °F 39.7 °F 33.8 °F 66% 30.03 in 7.0 mi South 9.2 mph - N/A   Scattered Clouds
9:53 PM 44.6 °F 39.7 °F 33.8 °F 66% 30.02 in 7.0 mi South 9.2 mph - N/A   Scattered Clouds
10:13 PM 44.6 °F 38.8 °F 33.8 °F 66% 30.01 in 7.0 mi South 11.5 mph - N/A   Mostly Cloudy
10:34 PM 44.6 °F 38.4 °F 33.8 °F 66% 29.99 in 7.0 mi South 12.7 mph - N/A   Scattered Clouds
10:54 PM 44.6 °F 38.8 °F 33.8 °F 66% 29.98 in 7.0 mi South 11.5 mph 19.6 mph N/A   Scattered Clouds
11:13 PM 44.6 °F 38.1 °F 33.8 °F 66% 29.97 in 7.0 mi South 13.8 mph 20.7 mph N/A   Mostly Cloudy
11:33 PM 44.6 °F 38.1 °F 33.8 °F 66% 29.95 in 7.0 mi South 13.8 mph 20.7 mph N/A   Overcast
11:53 PM 44.6 °F 37.8 °F 33.8 °F 66% 29.95 in 7.0 mi South 15.0 mph 20.7 mph N/A   Overcast